• In India
  • List of Countries
  • For 7 days
  • Water Temperature
  • Satellite Maps
  • Weather Map
  • Weather Widgets
  • user-avatar
    Login

    Hourly Weather Barra

    Today, 15 December, Saturday

    Time Temperature Precipitation Wind Pressure Humidity
    00:00 +26°C° 0.3 mm 1 mps 743 mmHg 91%
    01:00 +26°C° 0.3 mm 1 mps 743 mmHg 92%
    02:00 +26°C° 0.1 mm 1 mps 743 mmHg 91%
    03:00 +26°C° 0.1 mm 1 mps 743 mmHg 91%
    04:00 +26°C° 0 mm 1 mps 743 mmHg 92%
    05:00 +27°C° 0.4 mm 1 mps 743 mmHg 91%
    06:00 +25°C° 0.4 mm 0 mps 743 mmHg 90%
    07:00 +25°C° 0.4 mm 0 mps 743 mmHg 89%
    08:00 +29°C° 0.2 mm 1 mps 743 mmHg 79%
    09:00 +30°C° 0.2 mm 1 mps 744 mmHg 69%
    10:00 +32°C° 0 mm 2 mps 742 mmHg 64%
    11:00 +31°C° 0.9 mm 3 mps 742 mmHg 69%
    12:00 +30°C° 0.9 mm 3 mps 742 mmHg 75%
    13:00 +29°C° 0.9 mm 4 mps 742 mmHg 80%
    14:00 +29°C° 1.3 mm 4 mps 741 mmHg 83%
    15:00 +28°C° 1.3 mm 4 mps 741 mmHg 87%
    16:00 +28°C° 1.3 mm 4 mps 741 mmHg 90%
    17:00 +28°C° 1.6 mm 4 mps 741 mmHg 92%
    18:00 +27°C° 1.6 mm 4 mps 741 mmHg 93%
    19:00 +27°C° 1.6 mm 4 mps 741 mmHg 95%
    20:00 +27°C° 0.9 mm 4 mps 741 mmHg 95%
    21:00 +27°C° 0.9 mm 5 mps 741 mmHg 95%
    22:00 +27°C° 0.9 mm 5 mps 741 mmHg 95%
    23:00 +27°C° 0.7 mm 6 mps 740 mmHg 94%

    Tomorrow, 16 December, Sunday

    Time Temperature Precipitation Wind Pressure Humidity
    00:00 +26°C° 0.7 mm 6 mps 740 mmHg 93%
    01:00 +26°C° 0.7 mm 6 mps 740 mmHg 92%
    02:00 +26°C° 0.1 mm 5 mps 740 mmHg 92%
    03:00 +26°C° 0.1 mm 5 mps 739 mmHg 91%
    04:00 +26°C° 0.1 mm 5 mps 739 mmHg 91%
    05:00 +26°C° 0 mm 4 mps 740 mmHg 90%
    06:00 +26°C° 0 mm 4 mps 740 mmHg 88%
    07:00 +27°C° 0 mm 4 mps 740 mmHg 87%
    08:00 +28°C° 0.1 mm 3 mps 741 mmHg 84%
    09:00 +28°C° 0.1 mm 3 mps 741 mmHg 80%
    10:00 +29°C° 0.1 mm 3 mps 741 mmHg 77%
    11:00 +30°C° 0.1 mm 2 mps 741 mmHg 72%
    12:00 +32°C° 0.1 mm 2 mps 741 mmHg 67%
    13:00 +34°C° 0.1 mm 2 mps 740 mmHg 62%
    14:00 +34°C° 0.1 mm 3 mps 740 mmHg 61%
    15:00 +34°C° 0.1 mm 3 mps 740 mmHg 60%
    16:00 +34°C° 0.1 mm 3 mps 739 mmHg 59%
    17:00 +33°C° 0.1 mm 3 mps 740 mmHg 67%
    18:00 +30°C° 0.1 mm 2 mps 740 mmHg 74%
    19:00 +28°C° 0.1 mm 2 mps 740 mmHg 82%
    20:00 +28°C° 0 mm 1 mps 741 mmHg 83%
    21:00 +28°C° 0 mm 1 mps 742 mmHg 84%
    22:00 +27°C° 0 mm 1 mps 742 mmHg 85%
    23:00 +27°C° 0 mm 1 mps 742 mmHg 85%

    Day after tomorrow, 17 December, Monday

    Time Temperature Precipitation Wind Pressure Humidity
    00:00 +26°C° 0 mm 2 mps 742 mmHg 85%
    01:00 +26°C° 0 mm 2 mps 741 mmHg 85%
    02:00 +26°C° 0 mm 2 mps 741 mmHg 85%
    03:00 +26°C° 0 mm 2 mps 741 mmHg 86%
    04:00 +26°C° 0 mm 3 mps 741 mmHg 87%
    05:00 +26°C° 0 mm 3 mps 742 mmHg 84%
    06:00 +27°C° 0 mm 3 mps 742 mmHg 82%
    07:00 +27°C° 0 mm 3 mps 743 mmHg 80%
    08:00 +30°C° 0 mm 3 mps 743 mmHg 69%
    09:00 +33°C° 0 mm 3 mps 743 mmHg 59%
    10:00 +36°C° 0 mm 3 mps 743 mmHg 48%
    11:00 +37°C° 0 mm 3 mps 743 mmHg 43%
    12:00 +38°C° 0 mm 3 mps 742 mmHg 39%
    13:00 +39°C° 0 mm 3 mps 742 mmHg 34%
    14:00 +39°C° 0 mm 3 mps 742 mmHg 35%
    15:00 +38°C° 0 mm 3 mps 741 mmHg 36%
    16:00 +38°C° 0 mm 3 mps 741 mmHg 37%
    17:00 +36°C° 0 mm 3 mps 741 mmHg 46%
    18:00 +33°C° 0 mm 3 mps 742 mmHg 56%
    19:00 +30°C° 0 mm 2 mps 742 mmHg 66%
    20:00 +29°C° 0 mm 2 mps 742 mmHg 67%
    21:00 +29°C° 0 mm 2 mps 743 mmHg 69%
    22:00 +28°C° 0 mm 2 mps 744 mmHg 70%
    23:00 +28°C° 0 mm 2 mps 743 mmHg 69%

    18 December, Tuesday

    Time Temperature Precipitation Wind Pressure Humidity
    00:00 +28°C° 0 mm 2 mps 743 mmHg 67%
    01:00 +27°C° 0 mm 1 mps 743 mmHg 66%
    02:00 +27°C° 0 mm 1 mps 743 mmHg 65%
    03:00 +27°C° 0 mm 1 mps 743 mmHg 65%
    04:00 +26°C° 0 mm 1 mps 743 mmHg 64%
    05:00 +27°C° 0 mm 1 mps 743 mmHg 63%
    06:00 +28°C° 0 mm 1 mps 744 mmHg 63%
    07:00 +28°C° 0 mm 2 mps 744 mmHg 62%
    08:00 +31°C° 0 mm 2 mps 745 mmHg 56%
    09:00 +34°C° 0 mm 2 mps 745 mmHg 49%
    10:00 +37°C° 0 mm 3 mps 745 mmHg 43%
    11:00 +38°C° 0 mm 3 mps 744 mmHg 43%
    12:00 +38°C° 0 mm 3 mps 744 mmHg 43%
    13:00 +40°C° 0 mm 4 mps 744 mmHg 43%
    14:00 +38°C° 0 mm 4 mps 743 mmHg 48%
    15:00 +36°C° 0 mm 3 mps 743 mmHg 54%
    16:00 +35°C° 0 mm 3 mps 742 mmHg 59%
    17:00 +34°C° 0.3 mm 3 mps 743 mmHg 68%
    18:00 +31°C° 0.3 mm 2 mps 743 mmHg 76%
    19:00 +29°C° 0.3 mm 2 mps 744 mmHg 85%
    20:00 +29°C° 0.5 mm 2 mps 745 mmHg 87%
    21:00 +28°C° 0.5 mm 2 mps 745 mmHg 90%
    22:00 +28°C° 0.5 mm 2 mps 746 mmHg 93%
    23:00 +27°C° 0.2 mm 1 mps 746 mmHg 94%

    19 December, Wednesday

    Time Temperature Precipitation Wind Pressure Humidity
    00:00 +27°C° 0.2 mm 1 mps 745 mmHg 95%
    01:00 +27°C° 0.2 mm 1 mps 745 mmHg 96%
    02:00 +27°C° 0.3 mm 1 mps 745 mmHg 96%
    03:00 +27°C° 0.3 mm 1 mps 745 mmHg 96%
    04:00 +27°C° 0.3 mm 1 mps 745 mmHg 96%
    05:00 +27°C° 0.2 mm 1 mps 745 mmHg 94%
    06:00 +28°C° 0.2 mm 2 mps 746 mmHg 92%
    07:00 +28°C° 0.2 mm 2 mps 746 mmHg 90%
    08:00 +30°C° 0 mm 2 mps 746 mmHg 83%
    09:00 +31°C° 0 mm 3 mps 746 mmHg 76%
    10:00 +33°C° 0 mm 3 mps 746 mmHg 69%
    11:00 +34°C° 0 mm 3 mps 746 mmHg 65%
    12:00 +35°C° 0 mm 3 mps 745 mmHg 61%
    13:00 +36°C° 0 mm 3 mps 745 mmHg 56%
    14:00 +36°C° 0 mm 3 mps 744 mmHg 59%
    15:00 +35°C° 0 mm 3 mps 744 mmHg 61%
    16:00 +35°C° 0 mm 3 mps 744 mmHg 63%
    17:00 +33°C° 0.2 mm 3 mps 744 mmHg 70%
    18:00 +30°C° 0.2 mm 2 mps 745 mmHg 77%
    19:00 +29°C° 0.2 mm 2 mps 745 mmHg 84%
    20:00 +28°C° 0 mm 1 mps 745 mmHg 87%
    21:00 +28°C° 0 mm 1 mps 746 mmHg 90%
    22:00 +27°C° 0 mm 1 mps 746 mmHg 92%
    23:00 +27°C° 0 mm 1 mps 746 mmHg 93%

    20 December, Thursday

    Time Temperature Precipitation Wind Pressure Humidity
    00:00 +27°C° 0 mm 1 mps 746 mmHg 94%
    01:00 +26°C° 0 mm 1 mps 746 mmHg 95%
    02:00 +26°C° 0 mm 2 mps 746 mmHg 95%
    03:00 +26°C° 0 mm 2 mps 745 mmHg 94%
    04:00 +26°C° 0 mm 2 mps 745 mmHg 94%
    05:00 +27°C° 0.1 mm 2 mps 746 mmHg 91%
    06:00 +27°C° 0.1 mm 2 mps 746 mmHg 89%
    07:00 +28°C° 0.1 mm 2 mps 747 mmHg 86%
    08:00 +30°C° 0.1 mm 2 mps 747 mmHg 76%
    09:00 +32°C° 0.1 mm 2 mps 747 mmHg 67%
    10:00 +36°C° 0.1 mm 3 mps 747 mmHg 57%
    11:00 +36°C° 0 mm 3 mps 746 mmHg 55%
    12:00 +36°C° 0 mm 3 mps 745 mmHg 53%
    13:00 +37°C° 0 mm 3 mps 744 mmHg 51%
    14:00 +36°C° 0 mm 3 mps 744 mmHg 53%
    15:00 +36°C° 0 mm 4 mps 743 mmHg 55%
    16:00 +35°C° 0 mm 4 mps 743 mmHg 57%
    17:00 +34°C° 0 mm 3 mps 743 mmHg 66%
    18:00 +31°C° 0 mm 3 mps 744 mmHg 74%
    19:00 +29°C° 0 mm 3 mps 744 mmHg 83%
    20:00 +28°C° 0 mm 2 mps 744 mmHg 86%
    21:00 +28°C° 0 mm 2 mps 745 mmHg 89%
    22:00 +27°C° 0 mm 2 mps 745 mmHg 92%
    23:00 +27°C° 0 mm 2 mps 745 mmHg 92%
    Show more